Back to catalog

USA 99

AliveMilitaryGEO
NORAD 22988·PAYLOAD·🇺🇸 United States

Launched Feb 7, 1994 from Cape Canaveral Space Force Station

Loading…

TLE

FreshSource: Space-Track

Epoch: Sep 14, 2026, 12:11 UTC

1 22988U 94009A   26257.50810311 -.00000004  00000-0  00000-0 0  9997
2 22988  17.7584  26.7742 0002765 205.7677 170.2950  0.98721869 33836

Track USA 99 in real time with AllMySat

Download on the App Store